Weather History for North Platte, NE

Change the Weather History Date:

Saturday, April 12, 2014

  Actual Average Record
Temperature  
Mean Temperature 58 °F 46 °F  
Max Temperature 76 °F 61 °F 87 °F (1899)
Min Temperature 39 °F 32 °F 11 °F (1997)
Degree Days  
Heating Degree Days 7 19  
Month to date heating degree days 230 246  
Since 1 July heating degree days 6295 6111  
Cooling Degree Days 0 0  
Month to date cooling degree days 0 0  
Year to date cooling degree days 0 0  
Growing Degree Days 8 (Base 50)    
Moisture  
Dew Point 35 °F    
Average Humidity 53    
Maximum Humidity 86    
Minimum Humidity 20    
Precipitation  
Precipitation 0.00 in 0.08 in 1.04 in (1897)
Month to date precipitation 0.04 0.73  
Year to date precipitation 1.88 2.62  
Snow  
Snow 0.00 in 0.10 in 3.00 in (1966)
Month to date snowfall T 1.7  
Since 1 July snowfall 28.7 27.0  
Snow Depth 0.00 in    
Sea Level Pressure  
Sea Level Pressure 29.61 in    
Wind  
Wind Speed 13 mph (NNE)    
Max Wind Speed 32 mph    
Max Gust Speed 43 mph    
Visibility 10 miles    
Events      
T = Trace of Precipitation, MM = Missing Value Source: NWS Daily Summary

Daily Weather History Graph

Daily Weather History Graph

Search for Another Location

Airport:

Trip Planner

Search our weather history database for the weather conditions in past years. The results will help you decide how hot, cold, wet, or windy it might be!

Date:

Astronomy

Apr. 12, 2014 Rise Set
Actual Time 7:08 AM CDT 8:19 PM CDT
Civil Twilight 6:39 AM CDT 8:47 PM CDT
Nautical Twilight 6:05 AM CDT 9:21 PM CDT
Astronomical Twilight 5:30 AM CDT 9:57 PM CDT
Moon 5:58 PM CDT (4/12) 5:37 AM CDT (4/12)
Length of Visible Light 14h 08m
Length of Day
13h 11m
Waxing Gibbous, 93% of the Moon is Illuminated
Apr 12
Waxing Gibbous
Apr 15
Full
Apr 22
Last Quarter
Apr 29
New
May 6
First Quarter

Hourly Weather History & Observations

Time (CDT) Temp. Windchill Dew Point Humidity Pressure Visibility Wind Dir Wind Speed Gust Speed Precip Events Conditions
12:53 AM 59.0 °F - 35.1 °F 41% 29.63 in 10.0 mi South 15.0 mph - N/A   Clear
1:53 AM 57.9 °F - 37.0 °F 46% 29.62 in 10.0 mi South 15.0 mph - N/A   Clear
2:53 AM 57.9 °F - 39.0 °F 49% 29.60 in 10.0 mi South 16.1 mph - N/A   Clear
3:53 AM 57.9 °F - 42.1 °F 56% 29.57 in 10.0 mi South 17.3 mph - N/A   Clear
4:53 AM 55.0 °F - 42.1 °F 62% 29.60 in 10.0 mi WSW 4.6 mph - N/A   Clear
5:53 AM 43.0 °F 39.5 °F 37.9 °F 82% 29.62 in 10.0 mi NW 5.8 mph - N/A   Clear
6:53 AM 41.0 °F - 37.0 °F 86% 29.62 in 10.0 mi Calm Calm - N/A   Clear
7:53 AM 42.1 °F 39.2 °F 37.9 °F 85% 29.61 in 10.0 mi NW 4.6 mph - N/A   Clear
8:53 AM 51.1 °F - 39.0 °F 63% 29.62 in 10.0 mi WNW 9.2 mph - N/A   Clear
9:53 AM 63.0 °F - 37.0 °F 38% 29.60 in 10.0 mi North 10.4 mph - N/A   Clear
10:53 AM 68.0 °F - 36.0 °F 31% 29.60 in 10.0 mi North 16.1 mph - N/A   Clear
11:53 AM 71.1 °F - 35.1 °F 27% 29.61 in 10.0 mi NNE 12.7 mph - N/A   Clear
12:53 PM 73.9 °F - 35.1 °F 24% 29.60 in 10.0 mi NE 11.5 mph 18.4 mph N/A   Clear
1:53 PM 73.0 °F - 36.0 °F 26% 29.59 in 10.0 mi NNE 10.4 mph - N/A   Clear
2:53 PM 73.0 °F - 34.0 °F 24% 29.57 in 10.0 mi NNE 16.1 mph - N/A   Clear
3:53 PM 75.0 °F - 33.1 °F 22% 29.56 in 10.0 mi NE 16.1 mph - N/A   Clear
4:53 PM 73.9 °F - 30.0 °F 20% 29.56 in 10.0 mi NE 11.5 mph 21.9 mph N/A   Clear
5:53 PM 73.9 °F - 30.9 °F 21% 29.58 in 10.0 mi NE 15.0 mph - N/A   Clear
6:53 PM 70.0 °F - 30.0 °F 23% 29.59 in 10.0 mi NE 17.3 mph 28.8 mph N/A   Clear
7:53 PM 66.0 °F - 30.0 °F 26% 29.64 in 9.0 mi NE 11.5 mph - N/A   Clear
8:53 PM 60.1 °F - 32.0 °F 35% 29.65 in 10.0 mi NE 9.2 mph - N/A   Clear
9:53 PM 57.9 °F - 32.0 °F 37% 29.65 in 10.0 mi NNE 12.7 mph - N/A   Clear
10:53 PM 57.0 °F - 32.0 °F 39% 29.65 in 10.0 mi NE 20.7 mph 27.6 mph N/A   Clear
11:53 PM 55.9 °F - 30.0 °F 37% 29.63 in 10.0 mi North 25.3 mph 32.2 mph N/A   Partly Cloudy